This demonstration page uses our WeatherBlox Daily Observations layout. Learn more.

Left ArrowRight Arrow

Hourly Observations for April 29, 2022

Temp ( °F °C ) Dew Point ( °F °C ) Humidity (%) Winds ( mph kmh ) Pressure ( in mb ) Visibility ( mi km ) Precip ( " mm )
12:53 am 00:53 Clear 53 11.7 35 1.7 51 51 NNE 7 11 30.11 1020 10 16 0.00 0.00
1:53 am 01:53 Clear 53 11.7 34 1.1 48 48 NNE 8 13 30.12 1020 10 16 0.00 0.00
2:53 am 02:53 Clear 50 10 35 1.7 57 57 N 5 7 30.12 1020 10 16 0.00 0.00
3:53 am 03:53 Clear 46 7.8 37 2.8 71 71 NNE 5 7 30.13 1020 10 16 0.00 0.00
4:53 am 04:53 Clear 49 9.4 34 1.1 56 56 NNW 5 7 30.13 1020 10 16 0.00 0.00
5:53 am 05:53 Clear 50 10 33 0.6 52 52 NW 5 7 30.14 1021 10 16 0.00 0.00
6:53 am 06:53 Sunny 51 10.6 34 1.1 52 52 NNW 6 9 30.15 1021 10 16 0.00 0.00
7:53 am 07:53 Sunny 55 12.8 34 1.1 45 45 VRB 6 9 30.16 1021 10 16 0.00 0.00
8:53 am 08:53 Sunny 59 15 34 1.1 39 39 N 8 13 30.16 1021 10 16 0.00 0.00
9:53 am 09:53 Sunny 62 16.7 35 1.7 37 37 NNE 8 13 30.16 1021 10 16 0.00 0.00
10:53 am 10:53 Sunny 66 18.9 35 1.7 32 32 N 7 11 30.15 1021 10 16 0.00 0.00
11:53 am 11:53 Sunny 70 21.1 31 -0.6 23 23 N 9 15 30.12 1020 10 16 0.00 0.00
12:53 pm 12:53 Sunny 71 21.7 24 -4.4 17 17 VRB 3 6 30.10 1019 10 16 0.00 0.00
1:53 pm 13:53 Sunny 74 23.3 21 -6.1 14 14 NNE 10 17 30.08 1019 10 16 0.00 0.00
2:53 pm 14:53 Sunny 75 23.9 23 -5 14 14 N 9 15 30.06 1018 10 16 0.00 0.00
3:53 pm 15:53 Sunny 77 25 29 -1.7 17 17 VRB 6 9 30.02 1017 10 16 0.00 0.00
4:53 pm 16:53 Sunny 79 26.1 30 -1.1 17 17 VRB 6 9 29.99 1016 10 16 0.00 0.00
5:53 pm 17:53 Sunny 79 26.1 33 0.6 19 19 E 5 7 29.98 1015 10 16 0.00 0.00
6:53 pm 18:53 Sunny 77 25 32 0 19 19 Calm 29.96 1015 10 16 0.00 0.00
7:53 pm 19:53 Sunny 72 22.2 37 2.8 28 28 Calm 29.96 1014 10 16 0.00 0.00
8:53 pm 20:53 Clear 67 19.4 39 3.9 36 36 Calm 29.97 1015 10 16 0.00 0.00
9:53 pm 21:53 Clear 65 18.3 42 5.6 43 43 N 3 6 29.98 1015 10 16 0.00 0.00
10:53 pm 22:53 Clear 62 16.7 44 6.7 52 52 Calm 29.99 1016 10 16 0.00 0.00
11:53 pm 23:53 Clear 60 15.6 45 7.2 58 58 SE 5 7 29.98 1015 10 16 0.00 0.00

Powered by AerisWeather